KB9ZI Weather Reports


Display with metric or nautical units.
time (UTC)temp
F
wind
direction
speed
MPH
gust
MPH
rain 1hr
in
rain 24hr
in
rain mn
in
humidity
%
barometer
mb
20260505183233 49 238 0.0 15.0 0.00 0.00 0.00 46 1010.8
20260505183038 50 251 0.0 15.0 0.00 0.00 0.00 45 1010.6
20260505183028 50 258 0.0 12.0 0.00 0.00 0.00 44 1010.6
20260505183004 50 283 0.0 13.0 0.00 0.00 0.00 44 1010.7
20260505182634 51 254 0.0 12.0 0.00 0.00 0.00 46 1010.6
20260505182430 51 257 0.0 10.0 0.00 0.00 0.00 48 1010.6
20260505182232 51 258 0.0 10.0 0.00 0.00 0.00 44 1010.8
20260505182128 51 289 0.0 10.0 0.00 0.00 0.00 47 1010.6
20260505181831 51 251 0.0 10.0 0.00 0.00 0.00 44 1010.7
20260505181731 51 271 0.0 10.0 0.00 0.00 0.00 43 1010.6
20260505181632 52 257 0.0 10.0 0.00 0.00 0.00 44 1010.7
20260505181428 53 266 0.0 7.0 0.00 0.00 0.00 48 1010.6
20260505181232 52 243 0.0 7.0 0.00 0.00 0.00 52 1010.7
20260505181026 51 248 0.0 7.0 0.00 0.00 0.00 48 1010.7
20260505180827 51 220 0.0 13.0 0.00 0.00 0.00 46 1010.7
20260505180727 51 125 0.0 13.0 0.00 0.00 0.00 51 1010.6
20260505180623 50 54 0.0 13.0 0.00 0.00 0.00 47 1010.7
20260505180427 50 241 0.0 13.0 0.00 0.00 0.00 45 1010.7
20260505180331 50 241 0.0 13.0 0.00 0.00 0.00 45 1010.6
20260505180229 50 241 0.0 13.0 0.00 0.00 0.00 45 1010.6
20260505180032 50 241 0.0 13.0 0.00 0.00 0.00 45 1010.6
20260505175827 50 247 0.0 4.0 0.00 0.00 0.00 45 1010.6
20260505175726 50 248 0.0 2.0 0.00 0.00 0.00 44 1010.6
20260505175626 50 293 0.0 4.0 0.00 0.00 0.00 46 1010.7
20260505175427 50 238 0.0 13.0 0.00 0.00 0.00 43 1010.7
20260505175228 50 238 0.0 13.0 0.00 0.00 0.00 43 1010.7
20260505175027 49 292 0.0 13.0 0.00 0.00 0.00 43 1010.7
20260505174828 49 292 0.0 13.0 0.00 0.00 0.00 43 1010.7
20260505174731 49 278 0.0 13.0 0.00 0.00 0.00 43 1010.7
20260505174727 49 292 0.0 13.0 0.00 0.00 0.00 43 1010.7
20260505174425 50 262 0.0 13.0 0.00 0.00 0.00 44 1010.7
20260505174229 50 238 0.0 7.0 0.00 0.00 0.00 48 1010.6
20260505174026 50 286 0.0 7.0 0.00 0.00 0.00 48 1010.7
20260505173830 49 251 0.0 7.0 0.00 0.00 0.00 48 1010.7
20260505173727 49 251 0.0 9.0 0.00 0.00 0.00 48 1010.6
20260505173628 49 251 0.0 9.0 0.00 0.00 0.00 48 1010.7
20260505173518 48 217 0.0 11.0 0.00 0.00 0.00 48 1010.7
20260505173506 49 251 0.0 9.0 0.00 0.00 0.00 48 1010.6
20260505173440 48 217 0.0 11.0 0.00 0.00 0.00 48 1010.7
20260505173029 48 217 0.0 11.0 0.00 0.00 0.00 48 1010.8
20260505172826 48 217 0.0 11.0 0.00 0.00 0.00 48 1010.8
20260505172725 48 230 0.0 11.0 0.00 0.00 0.00 47 1010.8
20260505172626 48 269 0.0 11.0 0.00 0.00 0.00 47 1010.7
20260505172526 48 261 0.0 12.0 0.00 0.00 0.00 45 1010.8
20260505172511 48 220 0.0 11.0 0.00 0.00 0.00 47 1010.7
20260505172033 49 248 0.0 12.0 0.00 0.00 0.00 46 1010.7
20260505171826 49 272 0.0 12.0 0.00 0.00 0.00 46 1010.7
20260505171727 49 272 0.0 12.0 0.00 0.00 0.00 46 1010.8
20260505171627 49 314 0.0 12.0 0.00 0.00 0.00 46 1010.7
20260505171527 50 257 0.0 12.0 0.00 0.00 0.00 44 1010.8
20260505171512 49 241 0.0 12.0 0.00 0.00 0.00 44 1010.7
20260505171438 50 257 0.0 12.0 0.00 0.00 0.00 44 1010.8
20260505171037 50 252 0.0 12.0 0.00 0.00 0.00 46 1010.8
20260505170826 49 231 0.0 12.0 0.00 0.00 0.00 51 1010.8
20260505170731 48 257 0.0 7.0 0.00 0.00 0.00 49 1010.8
20260505170725 49 228 0.0 7.0 0.00 0.00 0.00 49 1010.8
20260505170529 48 241 0.0 9.0 0.00 0.00 0.00 47 1010.8
20260505170512 48 265 0.0 9.0 0.00 0.00 0.00 48 1010.8
20260505170439 48 241 0.0 9.0 0.00 0.00 0.00 47 1010.8
20260505170031 48 241 0.0 9.0 0.00 0.00 0.00 47 1010.9
20260505165825 49 258 0.0 9.0 0.00 0.00 0.00 46 1010.9
20260505165725 49 252 0.0 9.0 0.00 0.00 0.00 46 1010.8
20260505165625 49 226 0.0 9.0 0.00 0.00 0.00 46 1010.8
20260505165528 49 265 0.0 9.0 0.00 0.00 0.00 47 1010.9
20260505165510 49 135 0.0 9.0 0.00 0.00 0.00 51 1010.8
20260505165437 49 265 0.0 9.0 0.00 0.00 0.00 47 1010.9
20260505165137 49 252 0.0 4.0 0.00 0.00 0.00 47 1010.8
20260505164829 50 227 0.0 7.0 0.00 0.00 0.00 45 1010.9
20260505164727 50 227 0.0 7.0 0.00 0.00 0.00 45 1010.8
20260505164611 50 227 0.0 7.0 0.00 0.00 0.00 45 1010.9
20260505164454 50 227 0.0 9.0 0.00 0.00 0.00 45 1010.9
20260505164444 50 227 0.0 9.0 0.00 0.00 0.00 45 1010.9
20260505164205 50 227 0.0 9.0 0.00 0.00 0.00 45 1010.8
20260505164005 50 227 0.0 9.0 0.00 0.00 0.00 45 1010.8
20260505163807 50 255 0.0 9.0 0.00 0.00 0.00 50 1010.8
20260505163708 49 250 0.0 9.0 0.00 0.00 0.00 52 1010.8
20260505163607 49 226 0.0 9.0 0.00 0.00 0.00 46 1010.8
20260505163556 49 230 0.0 9.0 0.00 0.00 0.00 47 1010.9
20260505163509 48 261 0.0 5.0 0.00 0.00 0.00 46 1010.8
20260505163209 48 261 0.0 5.0 0.00 0.00 0.00 46 1010.8
20260505163009 48 261 0.0 5.0 0.00 0.00 0.00 46 1010.9
20260505162744 48 271 0.0 9.0 0.00 0.00 0.00 45 1010.9
20260505162705 48 271 0.0 12.0 0.00 0.00 0.00 45 1010.9
20260505162540 49 231 0.0 12.0 0.00 0.00 0.00 43 1011.0
20260505162343 50 226 0.0 12.0 0.00 0.00 0.00 48 1011.0
20260505162206 49 228 0.0 12.0 0.00 0.00 0.00 50 1011.0
20260505162131 49 228 0.0 12.0 0.00 0.00 0.00 49 1011.0
20260505161935 48 228 0.0 12.0 0.00 0.00 0.00 45 1011.0
20260505161728 48 226 0.0 12.0 0.00 0.00 0.00 47 1011.0
20260505161708 48 257 0.0 11.0 0.00 0.00 0.00 47 1010.9
20260505161514 48 248 0.0 11.0 0.00 0.00 0.00 49 1010.9
20260505161316 47 276 0.0 10.0 0.00 0.00 0.00 47 1011.0
20260505161203 47 227 0.0 10.0 0.00 0.00 0.00 45 1010.8
20260505161113 47 247 0.0 10.0 0.00 0.00 0.00 44 1010.8
20260505160911 49 248 0.0 10.0 0.00 0.00 0.00 52 1010.9
20260505160708 49 259 0.0 5.0 0.00 0.00 0.00 52 1010.9
20260505160507 49 259 0.0 5.0 0.00 0.00 0.00 52 1010.9
20260505160304 48 252 0.0 4.0 0.00 0.00 0.00 49 1010.8
20260505160200 48 199 0.0 3.0 0.00 0.00 0.00 48 1010.9
20260505160136 48 200 0.0 3.0 0.00 0.00 0.00 48 1010.9
20260505153209 47 79 0.0 4.0 0.00 0.00 0.00 47 1010.9
20260505153111 48 255 0.0 6.0 0.00 0.00 0.00 51 1010.7
20260505153011 48 255 0.0 6.0 0.00 0.00 0.00 51 1010.8
20260505152908 48 252 0.0 6.0 0.00 0.00 0.00 51 1010.8
20260505152604 48 228 0.0 6.0 0.00 0.00 0.00 50 1010.8
20260505152535 48 228 0.0 6.0 0.00 0.00 0.00 50 1010.8
20260505152335 48 228 0.0 6.0 0.00 0.00 0.00 50 1010.9
20260505152103 48 233 0.0 5.0 0.00 0.00 0.00 54 1010.8
20260505151911 47 235 0.0 5.0 0.00 0.00 0.00 54 1010.7
20260505151710 47 235 0.0 5.0 0.00 0.00 0.00 54 1010.8
20260505151602 47 202 0.0 5.0 0.00 0.00 0.00 48 1010.7
20260505151510 47 200 0.0 5.0 0.00 0.00 0.00 48 1010.7
20260505151310 47 228 0.0 9.0 0.00 0.00 0.00 51 1010.8
20260505151209 47 259 0.0 9.0 0.00 0.00 0.00 50 1010.7
20260505151032 47 261 0.0 9.0 0.00 0.00 0.00 51 1010.7
20260505150910 47 178 0.0 9.0 0.00 0.00 0.00 51 1010.7
20260505150712 46 262 0.0 9.0 0.00 0.00 0.00 50 1010.7
20260505150542 46 279 0.0 9.0 0.00 0.00 0.00 51 1010.7
20260505150511 46 244 0.0 9.0 0.00 0.00 0.00 51 1010.7
20260505150311 46 276 0.0 9.0 0.00 0.00 0.00 54 1010.8
20260505150104 46 223 0.0 7.0 0.00 0.00 0.00 53 1010.7
20260505140534 45 250 0.0 2.0 0.00 0.00 0.00 52 1010.3
20260505140432 45 221 0.0 2.0 0.00 0.00 0.00 51 1010.4
20260505140335 45 76 0.0 2.0 0.00 0.00 0.00 53 1010.3
20260505140207 45 76 0.0 3.0 0.00 0.00 0.00 53 1010.3
20260505130308 43 196 0.0 2.0 0.00 0.00 0.00 56 1009.9
20260505130122 43 196 0.0 2.0 0.00 0.00 0.00 56 1009.9
20260505130115 43 196 0.0 2.0 0.00 0.00 0.00 56 1009.9
20260505125027 42 149 0.0 3.0 0.00 0.00 0.00 60 1009.8
20260505124630 42 340 0.0 3.0 0.00 0.00 0.00 61 1009.8
20260505124431 42 340 0.0 3.0 0.00 0.00 0.00 62 1009.8
20260505124327 42 282 0.0 3.0 0.00 0.00 0.00 62 1009.8
20260505124310 42 340 0.0 3.0 0.00 0.00 0.00 62 1009.8
20260505124105 41 0 0.0 5.0 0.00 0.00 0.00 64 1009.7
20260505124052 42 241 0.0 2.0 0.00 0.00 0.00 64 1009.7
20260505124022 41 0 0.0 5.0 0.00 0.00 0.00 64 1009.7
20260505123627 41 0 0.0 5.0 0.00 0.00 0.00 65 1009.6
20260505123421 41 0 0.0 5.0 0.00 0.00 0.00 66 1009.6
20260505123305 41 0 0.0 5.0 0.00 0.00 0.00 67 1009.5
20260505123220 40 0 0.0 5.0 0.00 0.00 0.00 67 1009.6
20260505123107 40 226 0.0 2.0 0.00 0.00 0.00 68 1009.5
20260505123054 40 0 0.0 5.0 0.00 0.00 0.00 67 1009.5
20260505123021 40 226 0.0 2.0 0.00 0.00 0.00 68 1009.5
20260505122715 40 226 0.0 2.0 0.00 0.00 0.00 68 1009.5
20260505122408 40 226 0.0 2.0 0.00 0.00 0.00 69 1009.4
20260505122305 40 226 0.0 4.0 0.00 0.00 0.00 69 1009.4
20260505122203 40 226 0.0 4.0 0.00 0.00 0.00 69 1009.3
20260505122104 39 196 0.0 4.0 0.00 0.00 0.00 71 1009.3
20260505122050 40 197 0.0 4.0 0.00 0.00 0.00 70 1009.3
20260505122016 39 196 0.0 4.0 0.00 0.00 0.00 71 1009.3
20260505121602 39 196 0.0 4.0 0.00 0.00 0.00 71 1009.3
20260505121403 39 196 0.0 4.0 0.00 0.00 0.00 72 1009.2
20260505121259 39 192 0.0 2.0 0.00 0.00 0.00 72 1009.2
20260505121203 39 192 0.0 2.0 0.00 0.00 0.00 73 1009.2
20260505121101 39 192 0.0 2.0 0.00 0.00 0.00 73 1009.2
20260505120806 39 192 0.0 2.0 0.00 0.00 0.00 72 1009.1
20260505120801 39 192 0.0 2.0 0.00 0.00 0.00 72 1009.1
20260505120601 38 192 0.0 1.0 0.00 0.00 0.00 72 1009.2
20260505120403 38 192 0.0 1.0 0.00 0.00 0.00 73 1009.1
20260505120306 38 192 0.0 1.0 0.00 0.00 0.00 73 1009.1
20260505120301 38 192 0.0 1.0 0.00 0.00 0.00 73 1009.0
20260505120004 38 192 0.0 1.0 0.00 0.00 0.00 74 1009.0
20260505115807 38 192 0.0 1.0 0.00 0.00 0.00 75 1009.1
20260505115757 38 192 0.0 1.0 0.00 0.00 0.00 75 1009.1
20260505115607 38 192 0.0 1.0 0.00 0.00 0.00 75 1009.0
20260505115405 38 192 0.0 1.0 0.00 0.00 0.00 75 1009.1
20260505115256 0 190 0.0 1.0 0.00 0.00 0.00 1009.0
20260505115205 37 190 0.0 1.0 0.00 0.00 0.00 77 1009.0
20260505115006 37 190 0.0 1.0 0.00 0.00 0.00 77 1008.9
20260505114807 37 190 0.0 1.0 0.00 0.00 0.00 77 1009.0
20260505114742 37 190 0.0 1.0 0.00 0.00 0.00 77 1009.0
20260505114650 37 190 0.0 1.0 0.00 0.00 0.00 77 1008.8
20260505114348 37 190 0.0 1.0 0.00 0.00 0.00 77 1008.9
20260505114243 37 190 0.0 1.0 0.00 0.00 0.00 77 1008.8
20260505114145 37 190 0.0 1.0 0.00 0.00 0.00 77 1008.8
20260505113945 37 190 0.0 0.0 0.00 0.00 0.00 77 1008.7
20260505113745 37 190 0.0 0.0 0.00 0.00 0.00 77 1008.6
20260505113545 37 190 0.0 0.0 0.00 0.00 0.00 77 1008.7
20260505113524 37 190 0.0 0.0 0.00 0.00 0.00 77 1008.6
20260505113505 37 190 0.0 0.0 0.00 0.00 0.00 77 1008.6
20260505113146 37 190 0.0 0.0 0.00 0.00 0.00 77 1008.5
20260505112946 37 190 0.0 0.0 0.00 0.00 0.00 77 1008.6
20260505112746 37 190 0.0 0.0 0.00 0.00 0.00 77 1008.6
20260505112643 37 190 0.0 0.0 0.00 0.00 0.00 77 1008.5
20260505112341 37 190 0.0 0.0 0.00 0.00 0.00 76 1008.4
20260505112236 37 190 0.0 0.0 0.00 0.00 0.00 76 1008.4
20260505112136 37 190 0.0 0.0 0.00 0.00 0.00 76 1008.5
20260505111937 37 190 0.0 0.0 0.00 0.00 0.00 76 1008.5
20260505111734 37 190 0.0 0.0 0.00 0.00 0.00 76 1008.3
20260505111536 37 190 0.0 0.0 0.00 0.00 0.00 76 1008.2
20260505111334 37 190 0.0 0.0 0.00 0.00 0.00 76 1008.3
20260505111230 37 190 0.0 0.0 0.00 0.00 0.00 76 1008.3
20260505111142 37 190 0.0 0.0 0.00 0.00 0.00 76 1008.3
20260505111025 37 190 0.0 0.0 0.00 0.00 0.00 76 1008.3
20260505110711 37 190 0.0 0.0 0.00 0.00 0.00 76 1008.2
20260505110527 37 190 0.0 0.0 0.00 0.00 0.00 75 1008.2
20260505110328 37 190 0.0 0.0 0.00 0.00 0.00 76 1008.2
20260505110210 37 190 0.0 1.0 0.00 0.00 0.00 76 1008.3
20260505110121 37 190 0.0 1.0 0.00 0.00 0.00 76 1008.2
20260505102207 38 189 0.0 1.0 0.00 0.00 0.00 73 1008.0
20260505102203 38 189 0.0 1.0 0.00 0.00 0.00 73 1008.0
20260505102001 38 189 0.0 1.0 0.00 0.00 0.00 73 1008.0
20260505101924 38 189 0.0 1.0 0.00 0.00 0.00 73 1008.0
20260505101604 38 189 0.0 1.0 0.00 0.00 0.00 72 1007.9
20260505101402 38 189 0.0 1.0 0.00 0.00 0.00 72 1007.9
20260505101303 38 189 0.0 1.0 0.00 0.00 0.00 72 1008.1
20260505101203 38 189 0.0 1.0 0.00 0.00 0.00 72 1008.0
20260505101001 38 189 0.0 1.0 0.00 0.00 0.00 72 1008.0
20260505100925 38 189 0.0 0.0 0.00 0.00 0.00 72 1008.0
20260505100605 38 189 0.0 0.0 0.00 0.00 0.00 71 1008.0
20260505100401 38 189 0.0 0.0 0.00 0.00 0.00 71 1007.9
20260505100206 38 189 0.0 0.0 0.00 0.00 0.00 71 1007.9
20260505100201 38 189 0.0 0.0 0.00 0.00 0.00 71 1007.9
20260505100002 38 189 0.0 0.0 0.00 0.00 0.00 71 1008.0
20260505095802 38 189 0.0 0.0 0.00 0.00 0.00 71 1007.9
20260505095700 38 189 0.0 0.0 0.00 0.00 0.00 71 1008.0
20260505095603 38 189 0.0 2.0 0.00 0.00 0.00 71 1007.9
20260505095402 38 189 0.0 2.0 0.00 0.00 0.00 71 1008.0
20260505095207 39 189 0.0 2.0 0.00 0.00 0.00 71 1007.9
20260505095203 39 189 0.0 2.0 0.00 0.00 0.00 71 1007.9
20260505095103 39 189 0.0 2.0 0.00 0.00 0.00 71 1007.9
20260505094800 39 189 0.0 2.0 0.00 0.00 0.00 71 1008.0
20260505094702 39 189 0.0 2.0 0.00 0.00 0.00 70 1008.0
20260505094602 39 186 0.0 1.0 0.00 0.00 0.00 70 1008.0
20260505094401 39 186 0.0 0.0 0.00 0.00 0.00 70 1008.0
20260505094205 39 186 0.0 0.0 0.00 0.00 0.00 70 1007.9
20260505094201 39 186 0.0 0.0 0.00 0.00 0.00 70 1007.9
20260505094001 39 186 0.0 1.0 0.00 0.00 0.00 70 1008.0
20260505093800 39 186 0.0 1.0 0.00 0.00 0.00 70 1007.8
20260505093700 39 186 0.0 1.0 0.00 0.00 0.00 70 1007.8
20260505093604 39 247 0.0 1.0 0.00 0.00 0.00 70 1007.8
20260505093504 39 247 0.0 1.0 0.00 0.00 0.00 70 1007.8
20260505093206 39 247 0.0 1.0 0.00 0.00 0.00 70 1007.8
20260505093202 39 247 0.0 1.0 0.00 0.00 0.00 70 1007.8
20260505093003 39 247 0.0 1.0 0.00 0.00 0.00 70 1007.8
20260505092950 39 247 0.0 1.0 0.00 0.00 0.00 69 1007.6
20260505092926 39 247 0.0 1.0 0.00 0.00 0.00 69 1007.8
20260505092603 39 247 0.0 1.0 0.00 0.00 0.00 69 1007.6
20260505092406 39 247 0.0 1.0 0.00 0.00 0.00 69 1007.6
20260505092304 39 247 0.0 1.0 0.00 0.00 0.00 69 1007.5
20260505092203 39 247 0.0 1.0 0.00 0.00 0.00 69 1007.5
20260505091955 39 248 0.0 1.0 0.00 0.00 0.00 69 1007.6
20260505091948 39 247 0.0 1.0 0.00 0.00 0.00 69 1007.6
20260505091920 40 248 0.0 1.0 0.00 0.00 0.00 69 1007.6
20260505091533 40 250 0.0 1.0 0.00 0.00 0.00 69 1007.6
20260505091331 40 250 0.0 1.0 0.00 0.00 0.00 69 1007.5
20260505091203 40 250 0.0 1.0 0.00 0.00 0.00 68 1007.4
20260505091125 40 251 0.0 1.0 0.00 0.00 0.00 68 1007.5
20260505091006 40 226 0.0 1.0 0.00 0.00 0.00 68 1007.4
20260505090953 40 250 0.0 1.0 0.00 0.00 0.00 68 1007.5
20260505090922 40 226 0.0 1.0 0.00 0.00 0.00 68 1007.4
20260505090619 40 226 0.0 2.0 0.00 0.00 0.00 68 1007.4
20260505090323 40 226 0.0 2.0 0.00 0.00 0.00 68 1007.5
20260505090203 40 226 0.0 2.0 0.00 0.00 0.00 68 1007.3
20260505090119 40 226 0.0 2.0 0.00 0.00 0.00 68 1007.4
20260505090006 40 227 0.0 2.0 0.00 0.00 0.00 68 1007.4
20260505085951 40 226 0.0 2.0 0.00 0.00 0.00 68 1007.5
20260505085920 40 227 0.0 2.0 0.00 0.00 0.00 68 1007.4
20260505085508 40 228 0.0 2.0 0.00 0.00 0.00 68 1007.3
20260505085305 40 228 0.0 2.0 0.00 0.00 0.00 67 1007.4
20260505085202 40 228 0.0 2.0 0.00 0.00 0.00 67 1007.4
20260505085104 40 228 0.0 2.0 0.00 0.00 0.00 67 1007.3
20260505085005 40 228 0.0 3.0 0.00 0.00 0.00 67 1007.2
20260505084707 40 228 0.0 3.0 0.00 0.00 0.00 67 1007.2
20260505084505 40 251 0.0 3.0 0.00 0.00 0.00 67 1007.2
20260505084305 40 251 0.0 3.0 0.00 0.00 0.00 67 1007.2
20260505084204 40 251 0.0 3.0 0.00 0.00 0.00 67 1007.2
20260505084105 40 251 0.0 4.0 0.00 0.00 0.00 67 1007.2
20260505083905 40 264 0.0 4.0 0.00 0.00 0.00 67 1007.2
20260505083706 40 264 0.0 4.0 0.00 0.00 0.00 67 1007.2
20260505083505 40 244 0.0 4.0 0.00 0.00 0.00 68 1007.1
20260505083306 40 245 0.0 4.0 0.00 0.00 0.00 68 1007.1
20260505083214 40 244 0.0 4.0 0.00 0.00 0.00 69 1007.2
20260505083204 40 245 0.0 4.0 0.00 0.00 0.00 68 1007.1
20260505082905 40 243 0.0 1.0 0.00 0.00 0.00 69 1007.1
20260505082707 40 243 0.0 1.0 0.00 0.00 0.00 69 1007.1
20260505082703 40 243 0.0 1.0 0.00 0.00 0.00 69 1007.1
20260505082503 40 243 0.0 3.0 0.00 0.00 0.00 69 1007.0
20260505082301 40 244 0.0 3.0 0.00 0.00 0.00 69 1007.0
20260505082202 40 243 0.0 3.0 0.00 0.00 0.00 69 1006.9
20260505082102 40 243 0.0 3.0 0.00 0.00 0.00 69 1007.0
20260505081902 40 243 0.0 3.0 0.00 0.00 0.00 69 1006.9
20260505081700 40 243 0.0 3.0 0.00 0.00 0.00 69 1006.9
20260505081639 40 243 0.0 3.0 0.00 0.00 0.00 69 1007.0
20260505081539 40 235 0.0 1.0 0.00 0.00 0.00 70 1006.9
20260505081235 40 235 0.0 1.0 0.00 0.00 0.00 69 1006.8
20260505081159 40 235 0.0 1.0 0.00 0.00 0.00 70 1006.8
20260505081033 40 235 0.0 1.0 0.00 0.00 0.00 69 1006.9
20260505080832 40 235 0.0 1.0 0.00 0.00 0.00 69 1006.9
20260505080658 40 235 0.0 1.0 0.00 0.00 0.00 69 1006.8
20260505080634 40 235 0.0 1.0 0.00 0.00 0.00 69 1006.9
20260505080457 40 235 0.0 2.0 0.00 0.00 0.00 69 1006.9
20260505080448 40 235 0.0 1.0 0.00 0.00 0.00 70 1006.9
20260505080422 40 235 0.0 2.0 0.00 0.00 0.00 69 1006.9
20260505080010 40 235 0.0 2.0 0.00 0.00 0.00 69 1006.9
20260505075802 40 235 0.0 2.0 0.00 0.00 0.00 69 1006.9
20260505075635 40 235 0.0 2.0 0.00 0.00 0.00 69 1006.9
20260505075630 40 235 0.0 2.0 0.00 0.00 0.00 69 1006.9
20260505075335 40 235 0.0 1.0 0.00 0.00 0.00 69 1006.8
20260505075135 40 235 0.0 1.0 0.00 0.00 0.00 69 1006.6
20260505074910 40 235 0.0 1.0 0.00 0.00 0.00 69 1006.6
20260505074713 40 235 0.0 1.0 0.00 0.00 0.00 69 1006.6
20260505074631 40 235 0.0 1.0 0.00 0.00 0.00 69 1006.7
20260505074507 40 235 0.0 1.0 0.00 0.00 0.00 69 1006.6
20260505074307 40 235 0.0 1.0 0.00 0.00 0.00 69 1006.7
20260505074121 40 235 0.0 1.0 0.00 0.00 0.00 69 1006.8
20260505074100 40 235 0.0 1.0 0.00 0.00 0.00 69 1006.8
20260505073954 40 235 0.0 1.0 0.00 0.00 0.00 69 1006.8
20260505073703 40 235 0.0 1.0 0.00 0.00 0.00 69 1006.7
20260505073622 40 235 0.0 1.0 0.00 0.00 0.00 70 1006.7
20260505073504 40 235 0.0 1.0 0.00 0.00 0.00 70 1006.7
20260505073302 40 235 0.0 1.0 0.00 0.00 0.00 70 1006.7
20260505073106 40 235 0.0 2.0 0.00 0.00 0.00 69 1006.7
20260505073102 40 235 0.0 2.0 0.00 0.00 0.00 69 1006.7
20260505072833 40 235 0.0 2.0 0.00 0.00 0.00 69 1006.6
20260505072633 40 235 0.0 2.0 0.00 0.00 0.00 70 1006.7
20260505072600 40 235 0.0 2.0 0.00 0.00 0.00 70 1006.7
20260505072437 40 235 0.0 2.0 0.00 0.00 0.00 70 1006.7
20260505072428 40 235 0.0 2.0 0.00 0.00 0.00 70 1006.6
20260505072346 40 235 0.0 1.0 0.00 0.00 0.00 69 1006.7
20260505072008 40 235 0.0 0.0 0.00 0.00 0.00 69 1006.7
20260505071812 40 235 0.0 1.0 0.00 0.00 0.00 70 1006.7
20260505071610 40 235 0.0 1.0 0.00 0.00 0.00 69 1006.8
20260505071558 40 235 0.0 1.0 0.00 0.00 0.00 69 1006.8
20260505071406 40 235 0.0 1.0 0.00 0.00 0.00 70 1006.7
20260505071206 40 235 0.0 1.0 0.00 0.00 0.00 70 1006.8
20260505071058 40 235 0.0 1.0 0.00 0.00 0.00 70 1006.7
20260505071005 40 235 0.0 1.0 0.00 0.00 0.00 70 1006.8
20260505070805 40 235 0.0 1.0 0.00 0.00 0.00 70 1006.7
20260505070708 40 235 0.0 1.0 0.00 0.00 0.00 70 1006.8
20260505070601 40 235 0.0 1.0 0.00 0.00 0.00 70 1006.8
20260505070407 40 235 0.0 1.0 0.00 0.00 0.00 69 1006.8
20260505070206 40 235 0.0 0.0 0.00 0.00 0.00 69 1006.9
20260505070056 40 235 0.0 0.0 0.00 0.00 0.00 69 1006.9
20260505070003 40 235 0.0 1.0 0.00 0.00 0.00 69 1006.9
20260505065803 0 235 0.0 1.0 0.00 0.00 0.00 1006.9
20260505065550 0 235 0.0 1.0 0.00 0.00 0.00 1006.9
20260505065332 41 235 0.0 1.0 0.00 0.00 0.00 67 1006.9
20260505065132 41 235 0.0 1.0 0.00 0.00 0.00 67 1006.9
20260505065047 41 235 0.0 1.0 0.00 0.00 0.00 67 1006.9
20260505065031 41 235 0.0 1.0 0.00 0.00 0.00 67 1006.9
20260505064704 41 235 0.0 1.0 0.00 0.00 0.00 67 1006.9
20260505064546 41 235 0.0 1.0 0.00 0.00 0.00 67 1006.8
20260505064504 41 235 0.0 1.0 0.00 0.00 0.00 67 1006.9
20260505064303 41 235 0.0 1.0 0.00 0.00 0.00 67 1006.8
20260505064103 41 235 0.0 1.0 0.00 0.00 0.00 68 1006.7
20260505064045 41 235 0.0 1.0 0.00 0.00 0.00 68 1006.7
20260505063903 41 235 0.0 1.0 0.00 0.00 0.00 68 1006.7
20260505063704 41 235 0.0 1.0 0.00 0.00 0.00 68 1006.7
20260505063545 41 235 0.0 1.0 0.00 0.00 0.00 71 1006.7
20260505063507 41 235 0.0 1.0 0.00 0.00 0.00 71 1006.7
20260505063300 41 235 0.0 1.0 0.00 0.00 0.00 68 1006.7
20260505063157 41 235 0.0 1.0 0.00 0.00 0.00 68 1006.7
20260505063047 41 235 0.0 1.0 0.00 0.00 0.00 68 1006.7
20260505062848 41 235 0.0 1.0 0.00 0.00 0.00 68 1006.8
20260505062646 41 235 0.0 1.0 0.00 0.00 0.00 68 1006.7
20260505062546 41 235 0.0 1.0 0.00 0.00 0.00 68 1006.8
20260505062453 41 235 0.0 1.0 0.00 0.00 0.00 68 1006.8
20260505062246 41 235 0.0 1.0 0.00 0.00 0.00 68 1006.7
20260505062047 41 235 0.0 1.0 0.00 0.00 0.00 67 1006.8
20260505061848 41 235 0.0 1.0 0.00 0.00 0.00 68 1006.7
20260505061648 41 235 0.0 1.0 0.00 0.00 0.00 68 1006.8
20260505061549 41 235 0.0 1.0 0.00 0.00 0.00 67 1006.8
20260505061545 41 235 0.0 1.0 0.00 0.00 0.00 67 1006.7
20260505061246 41 235 0.0 1.0 0.00 0.00 0.00 67 1006.8
20260505061046 41 235 0.0 1.0 0.00 0.00 0.00 66 1006.8
20260505060846 41 235 0.0 1.0 0.00 0.00 0.00 66 1006.8
20260505060646 42 235 0.0 1.0 0.00 0.00 0.00 65 1006.8
20260505060541 42 235 0.0 1.0 0.00 0.00 0.00 65 1006.8
20260505060446 42 235 0.0 1.0 0.00 0.00 0.00 65 1006.8
20260505060331 42 235 0.0 1.0 0.00 0.00 0.00 65 1006.9
20260505060321 42 235 0.0 1.0 0.00 0.00 0.00 65 1006.9
20260505060255 42 235 0.0 1.0 0.00 0.00 0.00 65 1006.9
20260505055956 42 235 0.0 1.0 0.00 0.00 0.00 66 1006.9
20260505055645 42 235 0.0 2.0 0.00 0.00 0.00 66 1006.9
20260505055540 42 235 0.0 2.0 0.00 0.00 0.00 65 1006.8
20260505055446 42 235 0.0 2.0 0.00 0.00 0.00 65 1006.8
20260505055333 42 235 0.0 2.0 0.00 0.00 0.00 66 1006.8
20260505055324 42 235 0.0 2.0 0.00 0.00 0.00 65 1006.8
20260505055257 42 235 0.0 2.0 0.00 0.00 0.00 66 1006.8
20260505054846 42 235 0.0 2.0 0.00 0.00 0.00 65 1006.7
20260505054646 42 235 0.0 2.0 0.00 0.00 0.00 65 1006.7
20260505054537 42 235 0.0 2.0 0.00 0.00 0.00 65 1006.7
20260505054446 42 235 0.0 4.0 0.00 0.00 0.00 64 1006.7
20260505054418 42 235 0.0 4.0 0.00 0.00 0.00 65 1006.7
20260505054255 42 235 0.0 4.0 0.00 0.00 0.00 65 1006.7
20260505053847 42 235 0.0 4.0 0.00 0.00 0.00 64 1006.7
20260505053647 42 235 0.0 4.0 0.00 0.00 0.00 64 1006.7
20260505053534 42 235 0.0 3.0 0.00 0.00 0.00 63 1006.8
20260505053447 42 235 0.0 3.0 0.00 0.00 0.00 63 1006.8
20260505053322 42 235 0.0 3.0 0.00 0.00 0.00 63 1006.7
20260505053313 42 235 0.0 3.0 0.00 0.00 0.00 63 1006.8
20260505053250 42 235 0.0 3.0 0.00 0.00 0.00 63 1006.7
20260505052850 43 235 0.0 3.0 0.00 0.00 0.00 63 1006.7
20260505052737 43 231 0.0 1.0 0.00 0.00 0.00 63 1006.7
20260505052532 43 231 0.0 1.0 0.00 0.00 0.00 63 1006.6
20260505052435 43 231 0.0 1.0 0.00 0.00 0.00 63 1006.7
20260505052234 43 230 0.0 2.0 0.00 0.00 0.00 64 1006.6
20260505052008 43 230 0.0 2.0 0.00 0.00 0.00 64 1006.6
20260505051811 43 230 0.0 5.0 0.00 0.00 0.00 64 1006.6
20260505051608 43 230 0.0 5.0 0.00 0.00 0.00 64 1006.5
20260505051530 43 230 0.0 5.0 0.00 0.00 0.00 64 1006.5
20260505051405 43 230 0.0 5.0 0.00 0.00 0.00 64 1006.6
20260505051204 43 230 0.0 5.0 0.00 0.00 0.00 63 1006.6
20260505051004 42 230 0.0 5.0 0.00 0.00 0.00 63 1006.5
20260505050909 42 243 0.0 1.0 0.00 0.00 0.00 63 1006.6
20260505050747 42 243 0.0 2.0 0.00 0.00 0.00 63 1006.5
20260505050333 42 243 0.0 2.0 0.00 0.00 0.00 63 1006.5
20260505050133 42 243 0.0 2.0 0.00 0.00 0.00 63 1006.5
20260505041558 42 241 0.0 1.0 0.00 0.00 0.00 63 1006.4
20260505041425 42 241 0.0 1.0 0.00 0.00 0.00 62 1006.3
20260505041358 42 241 0.0 1.0 0.00 0.00 0.00 62 1006.3
20260505041258 42 241 0.0 1.0 0.00 0.00 0.00 63 1006.3
20260505040954 42 241 0.0 1.0 0.00 0.00 0.00 63 1006.4
20260505040922 42 241 0.0 1.0 0.00 0.00 0.00 63 1006.4
20260505040756 42 241 0.0 1.0 0.00 0.00 0.00 63 1006.4
20260505040540 42 241 0.0 1.0 0.00 0.00 0.00 64 1006.4
20260505040422 42 241 0.0 1.0 0.00 0.00 0.00 63 1006.4
20260505040342 42 241 0.0 1.0 0.00 0.00 0.00 64 1006.4
20260505040140 43 241 0.0 1.0 0.00 0.00 0.00 64 1006.3
20260505035934 43 241 0.0 1.0 0.00 0.00 0.00 64 1006.4
20260505035921 43 241 0.0 1.0 0.00 0.00 0.00 63 1006.4
20260505035745 43 241 0.0 1.0 0.00 0.00 0.00 63 1006.3
20260505035732 43 241 0.0 1.0 0.00 0.00 0.00 64 1006.3
20260505035710 43 241 0.0 1.0 0.00 0.00 0.00 63 1006.3
20260505035331 43 241 0.0 1.0 0.00 0.00 0.00 63 1006.3
20260505035234 43 241 0.0 1.0 0.00 0.00 0.00 64 1006.4
20260505034931 43 241 0.0 1.0 0.00 0.00 0.00 64 1006.4
20260505034918 43 241 0.0 1.0 0.00 0.00 0.00 64 1006.3
20260505034732 43 241 0.0 1.0 0.00 0.00 0.00 64 1006.3
20260505034532 43 241 0.0 1.0 0.00 0.00 0.00 64 1006.3
20260505034416 43 241 0.0 1.0 0.00 0.00 0.00 64 1006.3
20260505034318 43 241 0.0 1.0 0.00 0.00 0.00 64 1006.3
20260505034121 43 241 0.0 1.0 0.00 0.00 0.00 64 1006.3
20260505033915 43 241 0.0 1.0 0.00 0.00 0.00 63 1006.2
20260505033718 43 241 0.0 1.0 0.00 0.00 0.00 62 1006.2
20260505033618 43 241 0.0 1.0 0.00 0.00 0.00 62 1006.2
20260505033406 43 241 0.0 0.0 0.00 0.00 0.00 62 1006.3
20260505033320 43 241 0.0 0.0 0.00 0.00 0.00 62 1006.3
20260505033125 44 241 0.0 0.0 0.00 0.00 0.00 61 1006.3
20260505032909 44 241 0.0 0.0 0.00 0.00 0.00 61 1006.3
20260505032707 44 241 0.0 0.0 0.00 0.00 0.00 61 1006.3
20260505032507 44 241 0.0 0.0 0.00 0.00 0.00 60 1006.3
20260505032407 44 241 0.0 0.0 0.00 0.00 0.00 61 1006.3
20260505032306 44 241 0.0 0.0 0.00 0.00 0.00 61 1006.2
20260505032111 0 241 0.0 1.0 0.00 0.00 0.00 1006.2
20260505032009 45 241 0.0 1.0 0.00 0.00 0.00 58 1006.3
20260505031908 45 241 0.0 1.0 0.00 0.00 0.00 58 1006.3
20260505031703 45 241 0.0 1.0 0.00 0.00 0.00 58 1006.3
20260505031643 45 241 0.0 1.0 0.00 0.00 0.00 58 1006.3
20260505031625 45 241 0.0 1.0 0.00 0.00 0.00 58 1006.2
20260505031302 45 241 0.0 1.0 0.00 0.00 0.00 58 1006.2
20260505031057 45 241 0.0 1.0 0.00 0.00 0.00 58 1006.3
20260505030906 45 241 0.0 1.0 0.00 0.00 0.00 58 1006.3
20260505030902 45 241 0.0 1.0 0.00 0.00 0.00 58 1006.3
20260505030701 45 241 0.0 1.0 0.00 0.00 0.00 58 1006.3
20260505030649 45 241 0.0 1.0 0.00 0.00 0.00 56 1006.2
20260505030625 45 241 0.0 1.0 0.00 0.00 0.00 56 1006.3
20260505030232 46 241 0.0 1.0 0.00 0.00 0.00 57 1006.2
20260505030032 46 241 0.0 1.0 0.00 0.00 0.00 56 1006.3
20260505025932 46 241 0.0 1.0 0.00 0.00 0.00 54 1006.3
20260505025903 46 241 0.0 1.0 0.00 0.00 0.00 54 1006.2
20260505025654 46 241 0.0 1.0 0.00 0.00 0.00 54 1006.2
20260505025644 46 241 0.0 1.0 0.00 0.00 0.00 54 1006.2
20260505025616 46 241 0.0 1.0 0.00 0.00 0.00 54 1006.2
20260505025202 46 241 0.0 1.0 0.00 0.00 0.00 54 1006.2
20260505025006 46 241 0.0 1.0 0.00 0.00 0.00 54 1006.1
20260505024900 46 241 0.0 1.0 0.00 0.00 0.00 54 1006.1
20260505024800 46 241 0.0 1.0 0.00 0.00 0.00 54 1006.0
20260505024649 47 241 0.0 2.0 0.00 0.00 0.00 54 1006.2
20260505024642 47 241 0.0 1.0 0.00 0.00 0.00 54 1006.1
20260505024616 47 241 0.0 2.0 0.00 0.00 0.00 54 1006.2
20260505024250 47 241 0.0 4.0 0.00 0.00 0.00 54 1006.1
20260505023952 47 241 0.0 4.0 0.00 0.00 0.00 54 1006.1
20260505023832 47 241 0.0 4.0 0.00 0.00 0.00 54 1006.0
20260505023749 47 241 0.0 4.0 0.00 0.00 0.00 54 1006.0
20260505023547 47 241 0.0 4.0 0.00 0.00 0.00 54 1006.0
20260505023349 47 240 0.0 4.0 0.00 0.00 0.00 53 1006.0
20260505023302 47 240 0.0 4.0 0.00 0.00 0.00 53 1006.0
20260505023250 47 245 0.0 2.0 0.00 0.00 0.00 53 1005.9
20260505022949 47 245 0.0 3.0 0.00 0.00 0.00 52 1005.9
20260505022805 47 245 0.0 3.0 0.00 0.00 0.00 52 1005.9
20260505022748 47 245 0.0 3.0 0.00 0.00 0.00 52 1005.9
20260505022544 47 245 0.0 3.0 0.00 0.00 0.00 52 1005.9
20260505022337 47 245 0.0 3.0 0.00 0.00 0.00 52 1005.9
20260505022305 47 245 0.0 3.0 0.00 0.00 0.00 52 1005.9
20260505022129 47 245 0.0 3.0 0.00 0.00 0.00 51 1005.9
20260505021935 47 244 0.0 3.0 0.00 0.00 0.00 52 1005.8
20260505021804 47 235 0.0 2.0 0.00 0.00 0.00 51 1005.8
20260505021734 47 235 0.0 2.0 0.00 0.00 0.00 51 1005.8
20260505021635 47 235 0.0 4.0 0.00 0.00 0.00 51 1005.8
20260505021307 47 235 0.0 4.0 0.00 0.00 0.00 51 1005.8
20260505021131 47 235 0.0 4.0 0.00 0.00 0.00 51 1005.8
20260505020930 47 235 0.0 4.0 0.00 0.00 0.00 52 1005.7
20260505020731 47 235 0.0 4.0 0.00 0.00 0.00 50 1005.6
20260505020524 47 214 0.0 4.0 0.00 0.00 0.00 51 1005.6
20260505020324 47 213 0.0 4.0 0.00 0.00 0.00 51 1005.6
20260505020231 47 213 0.0 4.0 0.00 0.00 0.00 51 1005.6
20260505020121 47 238 0.0 4.0 0.00 0.00 0.00 50 1005.6
20260505020026 48 238 0.0 4.0 0.00 0.00 0.00 51 1005.6
20260505015723 48 238 0.0 4.0 0.00 0.00 0.00 50 1005.6
20260505015516 48 237 0.0 4.0 0.00 0.00 0.00 50 1005.6
20260505015312 48 238 0.0 4.0 0.00 0.00 0.00 50 1005.5
20260505015231 48 220 0.0 4.0 0.00 0.00 0.00 50 1005.5
20260505015112 48 290 0.0 4.0 0.00 0.00 0.00 50 1005.5
20260505014920 48 255 0.0 9.0 0.00 0.00 0.00 50 1005.5
20260505014707 48 255 0.0 9.0 0.00 0.00 0.00 50 1005.5
20260505014434 48 155 0.0 9.0 0.00 0.00 0.00 49 1005.5
20260505014339 48 227 0.0 9.0 0.00 0.00 0.00 49 1005.5
20260505014236 48 227 0.0 9.0 0.00 0.00 0.00 49 1005.5
20260505014034 49 289 0.0 9.0 0.00 0.00 0.00 49 1005.4
20260505013844 49 212 0.0 9.0 0.00 0.00 0.00 48 1005.4
20260505013734 49 212 0.0 9.0 0.00 0.00 0.00 48 1005.4
20260505013635 49 212 0.0 9.0 0.00 0.00 0.00 48 1005.5
20260505013432 49 247 0.0 9.0 0.00 0.00 0.00 48 1005.4
20260505013236 49 250 0.0 6.0 0.00 0.00 0.00 51 1005.3
20260505013008 49 250 0.0 6.0 0.00 0.00 0.00 51 1005.3
20260505012735 49 245 0.0 6.0 0.00 0.00 0.00 49 1005.3
20260505012729 49 245 0.0 6.0 0.00 0.00 0.00 51 1005.3
20260505012645 49 197 0.0 4.0 0.00 0.00 0.00 52 1005.2
20260505012336 49 219 0.0 6.0 0.00 0.00 0.00 51 1005.2
20260505012233 49 219 0.0 6.0 0.00 0.00 0.00 52 1005.2
20260505012133 49 3 0.0 6.0 0.00 0.00 0.00 52 1005.1
20260505011942 50 62 0.0 11.0 0.00 0.00 0.00 51 1005.2
20260505011734 50 62 0.0 11.0 0.00 0.00 0.00 51 1005.0
20260505011709 50 221 0.0 11.0 0.00 0.00 0.00 51 1005.0
20260505011441 50 161 0.0 11.0 0.00 0.00 0.00 51 1005.0
20260505011229 50 258 0.0 11.0 0.00 0.00 0.00 51 1005.0
20260505011039 50 264 0.0 11.0 0.00 0.00 0.00 51 1004.9
20260505010835 50 264 0.0 11.0 0.00 0.00 0.00 50 1004.9
20260505010734 50 224 0.0 11.0 0.00 0.00 0.00 50 1004.9
20260505010635 50 223 0.0 11.0 0.00 0.00 0.00 50 1004.8
20260505010436 50 223 0.0 11.0 0.00 0.00 0.00 50 1004.7
20260505010233 51 293 0.0 11.0 0.00 0.00 0.00 49 1004.7
20260505010136 51 250 0.0 11.0 0.00 0.00 0.00 49 1004.7
20260505010014 51 257 0.0 12.0 0.00 0.00 0.00 50 1004.6
20260505005956 51 257 0.0 12.0 0.00 0.00 0.00 50 1004.7
20260505005635 51 257 0.0 12.0 0.00 0.00 0.00 50 1004.6
20260505005434 51 235 0.0 12.0 0.00 0.00 0.00 50 1004.5
20260505005230 51 252 0.0 12.0 0.00 0.00 0.00 49 1004.5
20260505005031 51 259 0.0 12.0 0.00 0.00 0.00 49 1004.5
20260505005015 51 224 0.0 11.0 0.00 0.00 0.00 50 1004.4
20260505004950 51 238 0.0 6.0 0.00 0.00 0.00 50 1004.4
20260505004631 51 248 0.0 11.0 0.00 0.00 0.00 51 1004.3
20260505004536 51 79 0.0 11.0 0.00 0.00 0.00 50 1004.3
20260505004234 51 79 0.0 11.0 0.00 0.00 0.00 50 1004.3
20260505004038 51 247 0.0 11.0 0.00 0.00 0.00 48 1004.3
20260505003958 51 235 0.0 11.0 0.00 0.00 0.00 48 1004.2
20260505003944 51 250 0.0 11.0 0.00 0.00 0.00 48 1004.3
20260505003633 51 257 0.0 4.0 0.00 0.00 0.00 48 1004.2
20260505003435 52 251 0.0 11.0 0.00 0.00 0.00 48 1004.2
20260505003220 52 251 0.0 11.0 0.00 0.00 0.00 48 1004.0
20260505003022 52 251 0.0 11.0 0.00 0.00 0.00 48 1004.0
20260505002822 52 251 0.0 11.0 0.00 0.00 0.00 48 1004.0
20260505002720 52 251 0.0 11.0 0.00 0.00 0.00 48 1003.9
20260505002619 52 233 0.0 11.0 0.00 0.00 0.00 48 1003.9
20260505002523 52 154 0.0 6.0 0.00 0.00 0.00 47 1003.8
20260505002218 53 266 0.0 12.0 0.00 0.00 0.00 50 1003.9
20260505002034 53 240 0.0 12.0 0.00 0.00 0.00 50 1003.8
20260505001822 53 240 0.0 12.0 0.00 0.00 0.00 50 1003.9
20260505001720 53 240 0.0 12.0 0.00 0.00 0.00 50 1003.9
20260505001623 53 240 0.0 12.0 0.00 0.00 0.00 50 1003.9
20260505001418 53 254 0.0 12.0 0.00 0.00 0.00 49 1003.8
20260505001218 53 217 0.0 6.0 0.00 0.00 0.00 49 1003.7
20260505001029 53 252 0.0 9.0 0.00 0.00 0.00 49 1003.7
20260505000923 53 289 0.0 9.0 0.00 0.00 0.00 49 1003.7
20260505000717 53 203 0.0 9.0 0.00 0.00 0.00 49 1003.7
20260505000605 53 353 0.0 15.0 0.00 0.00 0.00 47 1003.7
20260505000405 53 228 0.0 15.0 0.00 0.00 0.00 49 1003.7
20260505000219 53 268 0.0 15.0 0.00 0.00 0.00 49 1003.7
20260505000204 53 217 0.0 15.0 0.00 0.00 0.00 49 1003.7
20260505000005 53 228 0.0 15.0 0.00 0.00 0.00 48 1003.8
20260504235806 53 228 0.0 15.0 0.00 0.00 0.00 48 1003.7
20260504235719 53 228 0.0 15.0 0.00 0.00 0.00 48 1003.7
20260504235553 53 252 0.0 13.0 0.00 0.00 0.00 47 1003.6
20260504235354 53 255 0.0 13.0 0.00 0.00 0.00 47 1003.7
20260504235209 53 257 0.0 12.0 0.00 0.00 0.00 47 1003.7
20260504235152 53 0 0.0 11.0 0.00 0.00 0.00 47 1003.7
20260504235005 53 259 0.0 11.0 0.00 0.00 0.00 48 1003.6
20260504234957 53 231 0.0 11.0 0.00 0.00 0.00 47 1003.7
20260504234925 53 257 0.0 11.0 0.00 0.00 0.00 46 1003.7
20260504234545 53 252 0.0 10.0 0.00 0.00 0.00 48 1003.6
20260504234441 0 0.0 0.0 0.00 0.00 0.00 1003.5
20260504234202 54 192 0.0 7.0 0.00 0.00 0.00 47 1003.7
20260504234132 54 192 0.0 7.0 0.00 0.00 0.00 47 1003.7
20260504233932 54 192 0.0 10.0 0.00 0.00 0.00 47 1003.6
20260504233704 54 192 0.0 10.0 0.00 0.00 0.00 47 1003.5
20260504233506 54 192 0.0 10.0 0.00 0.00 0.00 47 1003.6
20260504233306 54 255 0.0 10.0 0.00 0.00 0.00 46 1003.6
20260504233204 54 254 0.0 10.0 0.00 0.00 0.00 47 1003.4
20260504233107 54 234 0.0 10.0 0.00 0.00 0.00 46 1003.5
20260504232905 54 257 0.0 7.0 0.00 0.00 0.00 46 1003.4
20260504232813 55 118 0.0 7.0 0.00 0.00 0.00 47 1003.3
20260504232705 55 118 0.0 7.0 0.00 0.00 0.00 47 1003.3
20260504232505 55 118 0.0 7.0 0.00 0.00 0.00 47 1003.4
20260504232252 55 118 0.0 11.0 0.00 0.00 0.00 47 1003.3
20260504232149 55 118 0.0 11.0 0.00 0.00 0.00 47 1003.3
20260504232052 55 118 0.0 11.0 0.00 0.00 0.00 47 1003.4
20260504231851 55 118 0.0 11.0 0.00 0.00 0.00 47 1003.3
20260504231649 55 243 0.0 11.0 0.00 0.00 0.00 46 1003.3
20260504231449 55 237 0.0 11.0 0.00 0.00 0.00 46 1003.2
20260504231251 55 226 0.0 13.0 0.00 0.00 0.00 47 1003.2
20260504231148 55 178 0.0 13.0 0.00 0.00 0.00 51 1003.2
20260504231051 55 157 0.0 13.0 0.00 0.00 0.00 48 1003.2
20260504230850 54 257 0.0 13.0 0.00 0.00 0.00 48 1003.2
20260504230649 55 238 0.0 13.0 0.00 0.00 0.00 47 1003.2
20260504230451 55 241 0.0 13.0 0.00 0.00 0.00 46 1003.1
20260504230251 55 259 0.0 14.0 0.00 0.00 0.00 46 1003.2
20260504230149 55 265 0.0 14.0 0.00 0.00 0.00 47 1003.1
20260504230104 55 240 0.0 14.0 0.00 0.00 0.00 47 1003.0
20260504225947 55 248 0.0 14.0 0.00 0.00 0.00 46 1003.0
20260504225649 55 228 0.0 14.0 0.00 0.00 0.00 45 1003.0
20260504225451 56 237 0.0 14.0 0.00 0.00 0.00 45 1002.9
20260504225254 56 272 0.0 12.0 0.00 0.00 0.00 45 1003.1
20260504225149 56 228 0.0 12.0 0.00 0.00 0.00 45 1003.1
20260504225051 56 274 0.0 14.0 0.00 0.00 0.00 45 1003.0
20260504224850 56 230 0.0 14.0 0.00 0.00 0.00 45 1002.9
20260504224649 56 220 0.0 14.0 0.00 0.00 0.00 45 1002.9
20260504224450 57 282 0.0 14.0 0.00 0.00 0.00 46 1002.9
20260504224350 57 340 0.0 14.0 0.00 0.00 0.00 45 1002.6
20260504224147 57 228 0.0 14.0 0.00 0.00 0.00 44 1002.8
20260504224051 57 310 0.0 9.0 0.00 0.00 0.00 45 1002.8
20260504223850 57 168 0.0 11.0 0.00 0.00 0.00 46 1002.7
20260504223650 57 266 0.0 11.0 0.00 0.00 0.00 46 1002.7
20260504223451 57 266 0.0 11.0 0.00 0.00 0.00 46 1002.7
20260504223247 57 206 0.0 11.0 0.00 0.00 0.00 46 1002.7
20260504223145 57 251 0.0 11.0 0.00 0.00 0.00 46 1002.7
20260504223049 57 250 0.0 11.0 0.00 0.00 0.00 45 1002.6
20260504222945 57 282 0.0 9.0 0.00 0.00 0.00 45 1002.7
20260504222648 58 262 0.0 9.0 0.00 0.00 0.00 45 1002.6
20260504222433 58 262 0.0 9.0 0.00 0.00 0.00 45 1002.5
20260504222232 58 262 0.0 9.0 0.00 0.00 0.00 45 1002.3
20260504222131 58 262 0.0 9.0 0.00 0.00 0.00 45 1002.3
20260504222032 58 262 0.0 9.0 0.00 0.00 0.00 45 1002.3
20260504221805 58 269 0.0 6.0 0.00 0.00 0.00 45 1002.3
20260504221631 58 285 0.0 6.0 0.00 0.00 0.00 46 1002.2
20260504221605 58 204 0.0 3.0 0.00 0.00 0.00 46 1002.3
20260504221407 0 0.0 0.0 0.00 0.00 0.00 1002.3
20260504221307 0 0.0 0.0 0.00 0.00 0.00 1002.1
20260504221134 0 0.0 0.0 0.00 0.00 0.00 1002.1
20260504220950 0 0.0 0.0 0.00 0.00 0.00 1002.0
20260504220737 0 0.0 0.0 0.00 0.00 0.00 1002.0
20260504220638 0 0.0 0.0 0.00 0.00 0.00 1002.1
20260504220535 0 0.0 0.0 0.00 0.00 0.00 1002.1
20260504220331 59 214 0.0 9.0 0.00 0.00 0.00 45 1002.0
20260504220106 59 214 0.0 12.0 0.00 0.00 0.00 45 1001.9
20260504215903 59 214 0.0 12.0 0.00 0.00 0.00 45 1002.0
20260504215703 59 214 0.0 12.0 0.00 0.00 0.00 45 1001.8
20260504215618 59 214 0.0 12.0 0.00 0.00 0.00 45 1001.8
20260504215537 59 323 0.0 12.0 0.00 0.00 0.00 45 1001.8
20260504215231 59 237 0.0 9.0 0.00 0.00 0.00 45 1001.9
20260504215102 59 217 0.0 9.0 0.00 0.00 0.00 45 1001.8
20260504215031 59 289 0.0 9.0 0.00 0.00 0.00 46 1001.8
20260504214830 58 0 0.0 6.0 0.00 0.00 0.00 45 1001.8
20260504214631 59 254 0.0 6.0 0.00 0.00 0.00 45 1001.8
20260504214606 59 254 0.0 6.0 0.00 0.00 0.00 45 1001.7
20260504214431 59 254 0.0 11.0 0.00 0.00 0.00 45 1001.7
20260504214230 59 254 0.0 11.0 0.00 0.00 0.00 45 1001.7
20260504214106 59 254 0.0 11.0 0.00 0.00 0.00 45 1001.7
20260504214035 59 254 0.0 11.0 0.00 0.00 0.00 45 1001.6
20260504213807 59 210 0.0 11.0 0.00 0.00 0.00 46 1001.5
20260504213606 59 261 0.0 11.0 0.00 0.00 0.00 45 1001.4
20260504213509 59 250 0.0 10.0 0.00 0.00 0.00 48 1001.4
20260504213207 59 223 0.0 10.0 0.00 0.00 0.00 45 1001.5
20260504213108 59 223 0.0 10.0 0.00 0.00 0.00 45 1001.5
20260504213006 59 227 0.0 10.0 0.00 0.00 0.00 45 1001.4
20260504212806 60 227 0.0 6.0 0.00 0.00 0.00 43 1001.4
20260504212605 60 186 0.0 6.0 0.00 0.00 0.00 43 1001.4
20260504212406 59 271 0.0 6.0 0.00 0.00 0.00 46 1001.3
20260504212208 62 234 0.0 3.0 0.00 0.00 0.00 44 1001.4
20260504212108 62 234 0.0 7.0 0.00 0.00 0.00 44 1001.4
20260504212012 62 234 0.0 7.0 0.00 0.00 0.00 44 1001.4
20260504211847 62 234 0.0 15.0 0.00 0.00 0.00 44 1001.4
20260504211603 62 234 0.0 15.0 0.00 0.00 0.00 44 1001.3
20260504211549 62 234 0.0 15.0 0.00 0.00 0.00 44 1001.3
20260504211349 62 234 0.0 15.0 0.00 0.00 0.00 44 1001.3
20260504211134 62 200 0.0 15.0 0.00 0.00 0.00 44 1001.4
20260504211056 62 252 0.0 15.0 0.00 0.00 0.00 43 1001.4
20260504210939 62 285 0.0 15.0 0.00 0.00 0.00 45 1001.4
20260504210845 62 303 0.0 13.0 0.00 0.00 0.00 44 1001.1
20260504210831 62 188 0.0 13.0 0.00 0.00 0.00 45 1001.2
20260504210534 62 282 0.0 13.0 0.00 0.00 0.00 44 1001.0
20260504210411 61 238 0.0 13.0 0.00 0.00 0.00 46 1001.3
20260504210337 61 238 0.0 13.0 0.00 0.00 0.00 44 1001.3
20260504210333 61 238 0.0 13.0 0.00 0.00 0.00 46 1001.2
20260504205928 61 250 0.0 13.0 0.00 0.00 0.00 43 1001.2
20260504205731 62 274 0.0 10.0 0.00 0.00 0.00 43 1001.1
20260504205549 62 274 0.0 10.0 0.00 0.00 0.00 43 1001.1
20260504205503 62 274 0.0 10.0 0.00 0.00 0.00 43 1001.2
20260504205339 62 241 0.0 14.0 0.00 0.00 0.00 43 1001.3
20260504205327 62 299 0.0 14.0 0.00 0.00 0.00 41 1001.2
20260504205250 62 250 0.0 14.0 0.00 0.00 0.00 43 1001.2
20260504204850 62 254 0.0 14.0 0.00 0.00 0.00 45 1001.3
20260504204650 62 265 0.0 14.0 0.00 0.00 0.00 43 1001.2
20260504204548 62 241 0.0 14.0 0.00 0.00 0.00 43 1001.2
20260504204532 62 279 0.0 14.0 0.00 0.00 0.00 42 1001.2
20260504204329 60 231 0.0 2.0 0.00 0.00 0.00 46 1001.1
20260504204320 62 248 0.0 10.0 0.00 0.00 0.00 43 1001.2
20260504204247 60 231 0.0 2.0 0.00 0.00 0.00 46 1001.1
20260504203855 60 231 0.0 2.0 0.00 0.00 0.00 46 1001.0
20260504203651 60 233 0.0 1.0 0.00 0.00 0.00 46 1001.0
20260504203531 61 233 0.0 10.0 0.00 0.00 0.00 46 1001.1
20260504203452 61 233 0.0 10.0 0.00 0.00 0.00 46 1001.1
20260504203253 61 233 0.0 11.0 0.00 0.00 0.00 46 1001.1
20260504203039 61 233 0.0 14.0 0.00 0.00 0.00 46 1001.0
20260504203034 61 233 0.0 14.0 0.00 0.00 0.00 46 1001.1
20260504202833 61 233 0.0 15.0 0.00 0.00 0.00 46 1001.1
20260504202634 61 233 0.0 15.0 0.00 0.00 0.00 46 1001.0
20260504202525 61 243 0.0 15.0 0.00 0.00 0.00 46 1001.0
20260504202432 60 135 0.0 15.0 0.00 0.00 0.00 46 1001.1
20260504202340 61 247 0.0 15.0 0.00 0.00 0.00 42 1001.1
20260504202319 61 230 0.0 15.0 0.00 0.00 0.00 42 1001.1
20260504202301 60 248 0.0 15.0 0.00 0.00 0.00 43 1001.0
20260504201834 0 197 0.0 3.0 0.00 0.00 0.00 1001.0
20260504201632 0 197 0.0 3.0 0.00 0.00 0.00 1001.0
20260504201526 0 197 0.0 3.0 0.00 0.00 0.00 1000.9
20260504201424 61 197 0.0 9.0 0.00 0.00 0.00 43 1001.0
20260504201306 61 235 0.0 11.0 0.00 0.00 0.00 43 1000.9
20260504201250 61 197 0.0 11.0 0.00 0.00 0.00 43 1000.9
20260504201006 61 235 0.0 11.0 0.00 0.00 0.00 43 1000.9
20260504200807 61 235 0.0 11.0 0.00 0.00 0.00 43 1001.0
20260504200519 61 235 0.0 11.0 0.00 0.00 0.00 43 1000.8
20260504200425 61 283 0.0 10.0 0.00 0.00 0.00 44 1000.9
20260504200313 61 240 0.0 13.0 0.00 0.00 0.00 45 1000.8
20260504200244 61 217 0.0 13.0 0.00 0.00 0.00 43 1000.8
20260504195923 62 323 0.0 13.0 0.00 0.00 0.00 45 1000.8
20260504195727 62 323 0.0 13.0 0.00 0.00 0.00 45 1000.4
20260504195524 62 281 0.0 13.0 0.00 0.00 0.00 47 1000.7
20260504195315 62 228 0.0 12.0 0.00 0.00 0.00 44 1000.9
20260504195110 62 261 0.0 12.0 0.00 0.00 0.00 44 1000.8
20260504195020 62 257 0.0 11.0 0.00 0.00 0.00 48 1000.8
20260504194903 62 154 0.0 11.0 0.00 0.00 0.00 48 1000.8
20260504194807 62 110 0.0 14.0 0.00 0.00 0.00 45 1000.8
20260504194506 62 265 0.0 14.0 0.00 0.00 0.00 48 1000.8
20260504194310 60 254 0.0 14.0 0.00 0.00 0.00 48 1000.7
20260504194305 61 248 0.0 14.0 0.00 0.00 0.00 48 1000.7
20260504194232 61 278 0.0 14.0 0.00 0.00 0.00 47 1000.7
20260504193901 60 237 0.0 14.0 0.00 0.00 0.00 45 1000.7
20260504193701 61 271 0.0 7.0 0.00 0.00 0.00 43 1000.6
20260504193502 62 259 0.0 13.0 0.00 0.00 0.00 45 1000.6
20260504193349 62 172 0.0 13.0 0.00 0.00 0.00 45 1000.3
20260504193256 62 97 0.0 14.0 0.00 0.00 0.00 46 1000.4
20260504193223 62 327 0.0 13.0 0.00 0.00 0.00 46 1000.6
20260504192835 62 85 0.0 14.0 0.00 0.00 0.00 48 1000.4
20260504192637 62 219 0.0 14.0 0.00 0.00 0.00 49 1000.4
20260504192501 62 231 0.0 18.0 0.00 0.00 0.00 47 1000.6
20260504192431 61 216 0.0 18.0 0.00 0.00 0.00 47 1000.6
20260504192304 61 237 0.0 18.0 0.00 0.00 0.00 44 1000.3
20260504192255 61 138 0.0 18.0 0.00 0.00 0.00 44 1000.4
20260504192222 61 243 0.0 18.0 0.00 0.00 0.00 44 1000.4
20260504191822 61 237 0.0 18.0 0.00 0.00 0.00 44 1000.3
20260504191716 62 244 0.0 18.0 0.00 0.00 0.00 45 1000.2
20260504191506 62 250 0.0 12.0 0.00 0.00 0.00 45 1000.2
20260504191420 62 250 0.0 12.0 0.00 0.00 0.00 45 1000.2
20260504191213 62 230 0.0 12.0 0.00 0.00 0.00 45 1000.2
20260504191011 62 233 0.0 12.0 0.00 0.00 0.00 46 1000.2
20260504190938 62 276 0.0 12.0 0.00 0.00 0.00 45 1000.2
20260504190808 62 274 0.0 10.0 0.00 0.00 0.00 45 1000.2
20260504190607 61 252 0.0 18.0 0.00 0.00 0.00 48 1000.2
20260504190506 61 247 0.0 18.0 0.00 0.00 0.00 46 1000.2
20260504190431 61 247 0.0 18.0 0.00 0.00 0.00 45 1000.2
20260504190229 60 261 0.0 18.0 0.00 0.00 0.00 46 1000.3
20260504190222 60 250 0.0 18.0 0.00 0.00 0.00 47 1000.3
20260504190149 60 282 0.0 18.0 0.00 0.00 0.00 45 1000.3
20260504185807 60 279 0.0 18.0 0.00 0.00 0.00 45 1000.4
20260504185609 60 258 0.0 17.0 0.00 0.00 0.00 43 1000.3
20260504185423 60 251 0.0 14.0 0.00 0.00 0.00 45 1000.4
20260504185406 60 264 0.0 14.0 0.00 0.00 0.00 45 1000.3
20260504185220 60 221 0.0 15.0 0.00 0.00 0.00 42 1000.2
20260504185215 60 196 0.0 14.0 0.00 0.00 0.00 45 1000.2
20260504185147 60 221 0.0 9.0 0.00 0.00 0.00 42 1000.2
20260504184858 60 221 0.0 15.0 0.00 0.00 0.00 42 1000.3
20260504184531 60 221 0.0 15.0 0.00 0.00 0.00 42 1000.1
20260504184408 60 221 0.0 15.0 0.00 0.00 0.00 42 1000.1
20260504184331 60 221 0.0 15.0 0.00 0.00 0.00 42 1000.1
20260504184210 60 254 0.0 18.0 0.00 0.00 0.00 44 1000.2
20260504184156 60 217 0.0 18.0 0.00 0.00 0.00 42 1000.0
20260504184124 60 254 0.0 18.0 0.00 0.00 0.00 44 1000.2
20260504183709 60 261 0.0 18.0 0.00 0.00 0.00 41 1000.1
20260504183509 60 259 0.0 18.0 0.00 0.00 0.00 42 1000.0
20260504183409 60 278 0.0 18.0 0.00 0.00 0.00 41 1000.0